Flag for U.S.A. Weather past 2 weeks in Passaic, New Jersey, U.S.A.

Now
82 °F

Light rain. More clouds than sun.


Feels Like: 86 °F
Forecast: 77 / 88 °F
Wind: 10 mph from Southwest

Location: Teterboro Airport

Current Time: Jul 30, 2015 at 5:20:28 PM

Latest Report: Jul 30, 2015 at 4:51 PM


Visibility: 5 mi

Pressure: 29.78 "Hg

Humidity: 70%

Dew point: 71 °F

Location of PassaicLocation

Historic Weather in Passaic — Graph

°F

Passaic temperature yesterday

Maximum temperature yesterday: 94 °F (at 2:51 PM)
Minimum temperature yesterday: 75 °F (at 4:51 AM)
Average temperature yesterday: 85 °F

Past Weeks' High & Low Weather Summary

 TemperatureHumidityPressure
High95 °F (Jul 19, 4:51 PM)87% (Jul 18, 8:51 AM)30.10 "Hg (Jul 18, 8:51 AM)
Low64 °F (Jul 16, 4:51 AM)26% (Jul 28, 4:51 PM)29.55 "Hg (Jul 21, 5:51 PM)
Average79 °F55%29.88 "Hg
* Reported Jul 15 3:51 PM — Jul 30 3:51 PM, Passaic, Weather by CustomWeather, © 2015

Note: Actual official high and low records may vary slightly from our data, if they occured in-between our weather recording intervals... More about our weather records

Advertising

Passaic weather history for previous 24 hours

 ConditionsComfort  
Time TempWeatherWind HumidityBarometerVisibility
3:51 PM
Thu, Jul 30
85 °FPassing clouds.7 mph70%29.78 "Hg7 mi
2:51 PM86 °FHaze.10 mph65%29.80 "Hg6 mi
1:51 PM87 °FBroken clouds.3 mph69%29.82 "Hg10 mi
12:51 PM86 °FMostly cloudy.8 mph65%29.84 "Hg10 mi
11:51 AM83 °FOvercast.12 mph72%29.86 "Hg10 mi
10:51 AM82 °FOvercast.13 mph72%29.87 "Hg6 mi
9:51 AM81 °FLight rain. Mostly cloudy.10 mph74%29.87 "Hg6 mi
8:51 AM79 °FLight rain. Overcast.8 mph79%29.89 "Hg10 mi
7:51 AM79 °FPartly sunny.7 mph79%29.90 "Hg10 mi
6:51 AM79 °FMostly cloudy.10 mph77%29.90 "Hg10 mi
5:51 AM78 °FPassing clouds.7 mph79%29.89 "Hg10 mi
4:51 AM78 °FClear.8 mph79%29.89 "Hg10 mi
3:51 AM78 °FClear.5 mph79%29.90 "Hg10 mi
2:51 AM79 °FClear.7 mph77%29.91 "Hg10 mi
1:51 AM80 °FClear.6 mph74%29.91 "Hg10 mi
12:51 AM81 °FClear.7 mph72%29.91 "Hg10 mi
11:51 PM
Wed, Jul 29
83 °FClear.8 mph65%29.91 "Hg10 mi
10:51 PM85 °FClear.10 mph61%29.90 "Hg10 mi
9:51 PM87 °FClear.8 mph57%29.90 "Hg10 mi
8:51 PM86 °FSunny.7 mph61%29.89 "Hg10 mi
7:51 PM87 °FSunny.7 mph57%29.89 "Hg10 mi
6:51 PM90 °FScattered clouds.10 mph47%29.88 "Hg10 mi
5:51 PM92 °FPassing clouds.12 mph38%29.89 "Hg10 mi
Weather by CustomWeather, © 2015

See weather overviewHow to use our weather pages